QPF
0.00 0.00 0.00 0.00 0.00 0.00 0.00 0.00 0.00 0.00 0.00 0.00 0.00 0.00 0.00 0.00 0.00 0.00 0.00 0.00 0.00 0.00 0.00 0.00 0.00 0.00 0.01 0.00 0.00 0.00 0.00 0.00 0.00 0.00 0.00 0.00 0.00 0.00 0.00 0.00 0.00 0.00 0.00 0.00 0.00 0.00 0.00 0.00 0.00
0.00 0.01 0.01 0.00 0.00 0.00 0.00 0.00 0.00 0.00 0.00 0.00 0.00 0.00 0.01 0.00 0.00 0.00 0.00 0.00 0.00 0.00 0.00 0.00 0.00 0.01 0.00 0.00 0.00 0.00 0.00 0.00 0.00 0.00 0.00 0.00 0.00 0.00 0.00 0.00 0.00 0.00 0.00 0.00 0.00 0.00 0.00 0.00 0.00
0.00 0.04 0.02 0.00 0.00 0.00 0.00 0.00 0.00 0.00 0.00 0.00 0.00 0.00 0.04 0.00 0.00 0.00 0.00 0.00 0.00 0.00 0.00 0.00 0.00 0.00 0.00 0.00 0.00 0.00 0.00 0.00 0.00 0.00 0.00 0.00 0.00 0.00 0.00 0.00 0.00 0.00 0.00 0.00 0.00 0.00 0.00 0.00 0.00
0.01 0.07 0.06 0.00 0.00 0.00 0.00 0.00 0.00 0.00 0.00 0.00 0.00 0.00 0.06 0.01 0.00 0.00 0.00 0.00 0.00 0.00 0.00 0.01 0.01 0.00 0.00 0.00 0.00 0.00 0.00 0.00 0.00 0.00 0.00 0.00 0.00 0.00 0.00 0.00 0.00 0.00 0.00 0.00 0.00 0.00 0.00 0.00 0.00
0.02 0.09 0.02 0.00 0.00 0.00 0.00 0.00 0.00 0.00 0.00 0.00 0.00 0.01 0.09 0.06 0.01 0.03 0.01 0.00 0.00 0.00 0.01 0.02 0.01 0.00 0.00 0.00 0.00 0.00 0.00 0.00 0.01 0.00 0.00 0.00 0.00 0.00 0.00 0.00 0.00 0.00 0.00 0.00 0.00 0.00 0.00 0.00 0.00
0.04 0.06 0.01 0.00 0.00 0.00 0.00 0.00 0.00 0.00 0.00 0.00 0.00 0.01 0.07 0.06 0.05 0.08 0.06 0.01 0.00 0.00 0.01 0.02 0.01 0.00 0.01 0.00 0.00 0.00 0.00 0.00 0.01 0.01 0.00 0.00 0.00 0.00 0.00 0.00 0.00 0.00 0.00 0.00 0.00 0.00 0.00 0.00 0.00
0.03 0.02 0.00 0.00 0.00 0.00 0.00 0.00 0.00 0.00 0.00 0.00 0.00 0.01 0.04 0.05 0.09 0.12 0.15 0.10 0.01 0.00 0.01 0.01 0.00 0.01 0.01 0.00 0.00 0.00 0.00 0.00 0.00 0.01 0.00 0.00 0.00 0.00 0.00 0.00 0.00 0.00 0.00 0.00 0.00 0.00 0.00 0.00 0.00
0.04 0.03 0.00 0.00 0.00 0.00 0.00 0.00 0.00 0.00 0.00 0.00 0.00 0.00 0.03 0.03 0.01 0.11 0.26 0.21 0.06 0.00 0.00 0.00 0.00 0.00 0.00 0.00 0.00 0.00 0.00 0.00 0.00 0.01 0.00 0.00 0.00 0.00 0.00 0.00 0.00 0.00 0.00 0.00 0.00 0.00 0.00 0.00 0.00
0.09 0.04 0.00 0.00 0.00 0.00 0.00 0.00 0.00 0.00 0.00 0.00 0.00 0.00 0.01 0.01 0.00 0.04 0.23 0.31 0.10 0.02 0.00 0.00 0.00 0.00 0.00 0.00 0.00 0.00 0.00 0.00 0.00 0.00 0.00 0.00 0.00 0.00 0.00 0.00 0.00 0.00 0.00 0.00 0.00 0.00 0.00 0.00 0.00
0.13 0.02 0.00 0.00 0.01 0.01 0.01 0.00 0.00 0.00 0.00 0.00 0.01 0.00 0.00 0.00 0.00 0.00 0.13 0.29 0.11 0.03 0.01 0.00 0.00 0.00 0.00 0.00 0.00 0.00 0.00 0.00 0.00 0.00 0.00 0.00 0.00 0.00 0.00 0.00 0.00 0.00 0.00 0.00 0.00 0.00 0.00 0.00 0.00
0.10 0.02 0.01 0.03 0.02 0.01 0.01 0.00 0.00 0.00 0.00 0.00 0.01 0.01 0.00 0.00 0.00 0.00 0.01 0.16 0.29 0.23 0.05 0.01 0.00 0.00 0.00 0.00 0.00 0.00 0.00 0.00 0.00 0.00 0.00 0.00 0.00 0.00 0.00 0.00 0.00 0.00 0.00 0.00 0.00 0.00 0.00 0.00 0.00
0.07 0.02 0.02 0.07 0.09 0.04 0.01 0.00 0.00 0.00 0.00 0.00 0.00 0.02 0.01 0.00 0.00 0.00 0.00 0.03 0.20 0.31 0.14 0.02 0.00 0.00 0.00 0.00 0.00 0.00 0.00 0.00 0.00 0.00 0.00 0.00 0.00 0.00 0.00 0.00 0.00 0.00 0.00 0.00 0.00 0.00 0.00 0.00 0.00
0.03 0.03 0.03 0.04 0.09 0.06 0.01 0.00 0.00 0.00 0.00 0.00 0.00 0.00 0.02 0.04 0.02 0.00 0.01 0.02 0.05 0.19 0.28 0.11 0.00 0.00 0.00 0.00 0.00 0.00 0.00 0.00 0.00 0.00 0.00 0.00 0.00 0.00 0.00 0.00 0.00 0.00 0.00 0.00 0.00 0.00 0.00 0.00 0.00
0.02 0.04 0.05 0.03 0.05 0.05 0.01 0.00 0.00 0.00 0.00 0.00 0.00 0.00 0.01 0.02 0.02 0.03 0.03 0.04 0.06 0.06 0.17 0.24 0.13 0.01 0.00 0.00 0.00 0.00 0.00 0.00 0.00 0.00 0.00 0.00 0.00 0.00 0.00 0.00 0.00 0.00 0.00 0.00 0.00 0.00 0.00 0.00 0.00
0.05 0.06 0.04 0.03 0.02 0.03 0.01 0.01 0.00 0.00 0.00 0.00 0.00 0.00 0.01 0.06 0.06 0.06 0.07 0.05 0.04 0.06 0.07 0.15 0.23 0.14 0.01 0.00 0.00 0.00 0.00 0.00 0.00 0.00 0.00 0.00 0.00 0.00 0.00 0.00 0.00 0.00 0.00 0.00 0.00 0.00 0.00 0.00 0.00
0.04 0.07 0.03 0.01 0.03 0.02 0.01 0.01 0.00 0.00 0.00 0.00 0.00 0.00 0.01 0.03 0.04 0.10 0.05 0.03 0.11 0.09 0.02 0.05 0.18 0.27 0.16 0.05 0.01 0.00 0.00 0.00 0.00 0.00 0.00 0.00 0.00 0.00 0.00 0.00 0.00 0.00 0.00 0.00 0.00 0.00 0.00 0.00 0.00
0.05 0.01 0.00 0.00 0.01 0.02 0.00 0.00 0.00 0.00 0.00 0.00 0.00 0.00 0.00 0.00 0.00 0.01 0.01 0.00 0.01 0.03 0.02 0.02 0.05 0.12 0.14 0.18 0.09 0.03 0.00 0.00 0.00 0.00 0.00 0.00 0.00 0.00 0.00 0.00 0.00 0.00 0.00 0.00 0.00 0.00 0.00 0.00 0.00
0.01 0.00 0.00 0.00 0.00 0.01 0.01 0.00 0.00 0.00 0.00 0.00 0.00 0.00 0.00 0.00 0.00 0.00 0.01 0.03 0.02 0.06 0.06 0.02 0.00 0.00 0.02 0.14 0.21 0.06 0.01 0.00 0.00 0.00 0.00 0.00 0.00 0.00 0.00 0.00 0.00 0.00 0.00 0.00 0.00 0.00 0.00 0.00 0.00
0.00 0.00 0.00 0.01 0.01 0.00 0.00 0.00 0.00 0.00 0.00 0.00 0.00 0.00 0.00 0.00 0.00 0.00 0.00 0.00 0.03 0.12 0.10 0.05 0.00 0.01 0.07 0.14 0.16 0.03 0.02 0.07 0.10 0.12 0.07 0.00 0.00 0.00 0.00 0.00 0.00 0.00 0.00 0.00 0.00 0.00 0.00 0.00 0.00
0.01 0.01 0.01 0.03 0.03 0.00 0.00 0.00 0.00 0.00 0.00 0.00 0.00 0.00 0.00 0.00 0.00 0.00 0.00 0.00 0.00 0.02 0.06 0.11 0.08 0.07 0.05 0.08 0.12 0.09 0.17 0.27 0.29 0.16 0.09 0.11 0.01 0.00 0.00 0.00 0.00 0.00 0.00 0.00 0.00 0.00 0.00 0.00 0.00
0.00 0.00 0.00 0.00 0.02 0.02 0.01 0.00 0.00 0.00 0.00 0.00 0.00 0.00 0.00 0.00 0.00 0.00 0.00 0.00 0.00 0.00 0.00 0.04 0.11 0.03 0.02 0.02 0.05 0.06 0.07 0.06 0.09 0.07 0.04 0.12 0.10 0.08 0.03 0.00 0.00 0.00 0.00 0.00 0.00 0.00 0.00 0.00 0.00
0.00 0.00 0.00 0.03 0.02 0.00 0.01 0.00 0.00 0.00 0.00 0.00 0.00 0.00 0.00 0.00 0.00 0.00 0.00 0.00 0.00 0.00 0.00 0.02 0.04 0.03 0.03 0.05 0.01 0.09 0.11 0.13 0.14 0.12 0.06 0.10 0.09 0.04 0.00 0.00 0.00 0.00 0.00 0.00 0.00 0.00 0.00 0.00 0.00
0.01 0.01 0.00 0.03 0.04 0.00 0.00 0.00 0.00 0.00 0.00 0.00 0.00 0.00 0.00 0.00 0.00 0.00 0.00 0.00 0.00 0.00 0.00 0.00 0.00 0.03 0.11 0.06 0.08 0.11 0.11 0.06 0.03 0.02 0.04 0.04 0.02 0.00 0.00 0.00 0.00 0.00 0.00 0.00 0.00 0.00 0.00 0.00 0.00
0.01 0.00 0.00 0.01 0.01 0.00 0.00 0.00 0.00 0.00 0.00 0.00 0.00 0.00 0.00 0.00 0.00 0.00 0.00 0.00 0.00 0.00 0.00 0.00 0.00 0.00 0.04 0.06 0.08 0.10 0.06 0.07 0.08 0.07 0.05 0.03 0.02 0.00 0.00 0.00 0.00 0.00 0.00 0.00 0.00 0.00 0.00 0.00 0.00
0.01 0.01 0.01 0.01 0.00 0.00 0.00 0.00 0.00 0.00 0.00 0.00 0.00 0.00 0.00 0.00 0.00 0.00 0.00 0.00 0.00 0.00 0.00 0.00 0.00 0.00 0.00 0.04 0.06 0.09 0.06 0.04 0.02 0.02 0.03 0.02 0.00 0.00 0.00 0.00 0.00 0.00 0.00 0.00 0.00 0.00 0.00 0.00 0.00
0.00 0.00 0.00 0.00 0.00 0.00 0.00 0.00 0.00 0.00 0.00 0.00 0.00 0.00 0.00 0.00 0.00 0.00 0.00 0.00 0.00 0.00 0.00 0.00 0.00 0.00 0.00 0.00 0.00 0.01 0.02 0.02 0.02 0.00 0.00 0.00 0.00 0.00 0.00 0.00 0.00 0.00 0.00 0.00 0.00 0.00 0.00 0.00 0.00
0.00 0.00 0.00 0.00 0.00 0.00 0.00 0.00 0.00 0.00 0.00 0.00 0.00 0.00 0.00 0.00 0.00 0.00 0.00 0.00 0.00 0.00 0.00 0.00 0.00 0.00 0.00 0.00 0.00 0.00 0.00 0.00 0.00 0.00 0.00 0.00 0.00 0.00 0.00 0.00 0.00 0.00 0.00 0.00 0.00 0.00 0.00 0.00 0.00
0.00 0.00 0.00 0.00 0.00 0.00 0.00 0.00 0.00 0.00 0.00 0.00 0.00 0.00 0.00 0.00 0.00 0.00 0.00 0.00 0.00 0.00 0.00 0.00 0.00 0.00 0.00 0.00 0.00 0.00 0.00 0.00 0.00 0.00 0.00 0.00 0.00 0.00 0.00 0.00 0.00 0.00 0.00 0.00 0.00 0.00 0.00 0.00 0.00
0.00 0.00 0.00 0.00 0.00 0.00 0.00 0.00 0.00 0.00 0.00 0.00 0.00 0.00 0.00 0.00 0.00 0.00 0.00 0.00 0.00 0.00 0.00 0.00 0.00 0.00 0.00 0.00 0.00 0.00 0.00 0.00 0.00 0.00 0.00 0.00 0.00 0.00 0.00 0.00 0.00 0.00 0.00 0.00 0.00 0.00 0.00 0.00 0.00
0.00 0.00 0.00 0.00 0.00 0.00 0.00 0.00 0.00 0.00 0.00 0.00 0.00 0.00 0.00 0.00 0.00 0.00 0.00 0.00 0.00 0.00 0.00 0.00 0.00 0.00 0.00 0.00 0.00 0.00 0.00 0.00 0.00 0.00 0.00 0.00 0.00 0.00 0.00 0.00 0.00 0.00 0.00 0.00 0.00 0.00 0.00 0.00 0.00
MSLP
1014.51 1014.55 1014.52 1014.61 1015.57 1015.52 1014.94 1013.41 1011.88 1011.27 1011.82 1010.95 1010.35 1010.63 1010.74 1011.08 1011.54 1012.79 1012.26 1012.38 1012.76 1013.51 1013.89 1014.45 1014.72 1015.10 1015.47 1015.71 1016.14 1016.45 1016.69 1016.84 1016.99 1017.16 1017.29 1017.32 1017.42 1017.48 1017.65 1017.98 1018.18 1018.46 1018.68 1018.81 1018.88 1018.99 1019.08 1019.19 1019.27
1014.66 1014.50 1014.80 1015.06 1015.42 1015.05 1013.90 1012.53 1011.49 1010.72 1010.74 1010.49 1010.54 1011.14 1011.02 1011.54 1011.79 1012.49 1012.83 1012.99 1012.94 1013.55 1014.20 1014.63 1014.93 1015.18 1015.56 1015.90 1016.25 1016.56 1016.79 1016.96 1017.18 1017.37 1017.54 1017.65 1017.80 1017.87 1018.01 1018.27 1018.56 1018.81 1019.04 1019.12 1019.21 1019.31 1019.38 1019.44 1019.49
1014.84 1014.96 1015.45 1015.29 1014.82 1013.81 1012.36 1011.48 1010.56 1010.49 1010.32 1010.42 1011.51 1011.31 1011.79 1012.57 1012.47 1012.53 1012.70 1013.22 1013.31 1013.85 1014.51 1014.86 1015.20 1015.45 1015.76 1016.05 1016.37 1016.68 1016.88 1017.10 1017.33 1017.56 1017.78 1017.85 1018.06 1018.17 1018.29 1018.55 1018.84 1019.17 1019.34 1019.38 1019.47 1019.57 1019.57 1019.67 1019.67
1014.86 1015.50 1015.81 1015.04 1014.14 1012.67 1011.57 1010.59 1010.18 1010.18 1010.48 1010.85 1011.10 1011.96 1012.51 1012.62 1012.73 1012.47 1013.17 1013.57 1013.88 1014.35 1014.72 1015.19 1015.51 1015.74 1016.08 1016.26 1016.55 1016.81 1017.00 1017.18 1017.51 1017.73 1017.95 1018.12 1018.27 1018.51 1018.62 1018.82 1019.14 1019.38 1019.48 1019.51 1019.67 1019.74 1019.79 1019.89 1019.85
1015.06 1015.50 1015.55 1015.03 1013.63 1012.24 1011.14 1009.93 1009.66 1009.69 1009.72 1009.91 1010.55 1012.59 1013.20 1013.11 1012.52 1013.14 1013.34 1014.02 1014.39 1014.76 1015.02 1015.40 1015.83 1016.10 1016.39 1016.46 1016.73 1016.98 1017.20 1017.35 1017.63 1017.92 1018.13 1018.41 1018.57 1018.85 1019.03 1019.18 1019.34 1019.53 1019.62 1019.66 1019.77 1019.81 1019.89 1019.98 1020.04
1015.16 1014.94 1015.22 1014.73 1013.33 1012.12 1010.87 1009.69 1009.67 1009.42 1009.66 1009.92 1011.06 1012.19 1012.76 1013.72 1013.63 1013.86 1013.92 1014.08 1014.46 1014.89 1015.21 1015.55 1015.89 1016.29 1016.60 1016.71 1016.96 1017.19 1017.37 1017.57 1017.74 1018.05 1018.31 1018.57 1018.81 1019.07 1019.32 1019.48 1019.61 1019.74 1019.86 1019.85 1019.90 1019.91 1020.00 1020.03 1020.10
1014.55 1014.32 1014.70 1014.03 1013.10 1011.97 1010.58 1009.65 1009.54 1009.10 1009.77 1010.32 1010.42 1012.17 1012.91 1013.72 1014.47 1014.16 1014.38 1014.29 1014.87 1015.19 1015.50 1015.84 1016.06 1016.40 1016.68 1016.82 1017.12 1017.39 1017.59 1017.80 1017.91 1018.16 1018.46 1018.76 1018.98 1019.15 1019.34 1019.58 1019.74 1019.96 1020.12 1020.22 1020.27 1020.27 1020.20 1020.24 1020.27
1014.16 1013.69 1014.04 1013.52 1012.77 1011.55 1010.36 1009.98 1009.62 1009.21 1009.97 1010.36 1010.58 1011.68 1012.55 1013.06 1013.89 1013.90 1014.71 1015.06 1015.40 1015.57 1015.78 1016.28 1016.42 1016.61 1016.84 1016.96 1017.23 1017.45 1017.73 1017.93 1018.15 1018.39 1018.67 1018.95 1019.18 1019.31 1019.44 1019.68 1019.82 1019.98 1020.20 1020.33 1020.45 1020.47 1020.47 1020.47 1020.46
1013.23 1013.20 1013.70 1013.04 1012.32 1011.36 1010.55 1010.21 1009.91 1009.47 1009.86 1010.70 1011.03 1010.94 1010.52 1011.87 1013.61 1012.96 1015.07 1015.67 1015.95 1015.81 1016.01 1016.32 1016.67 1016.78 1017.06 1017.13 1017.34 1017.54 1017.83 1018.10 1018.36 1018.68 1018.97 1019.20 1019.44 1019.60 1019.68 1019.81 1019.96 1020.18 1020.27 1020.40 1020.48 1020.50 1020.50 1020.53 1020.54
1012.47 1012.65 1013.06 1012.72 1012.00 1011.59 1011.00 1010.38 1009.89 1010.00 1010.42 1010.95 1011.16 1010.98 1010.99 1011.84 1013.04 1012.18 1015.15 1015.99 1015.87 1015.97 1016.21 1016.40 1016.51 1016.74 1017.00 1017.11 1017.46 1017.67 1017.90 1018.26 1018.45 1018.79 1019.12 1019.42 1019.56 1019.74 1019.87 1019.96 1020.04 1020.22 1020.39 1020.48 1020.61 1020.64 1020.68 1020.71 1020.73
1011.21 1012.27 1012.52 1012.50 1012.20 1011.96 1011.70 1010.89 1010.27 1010.39 1010.91 1010.84 1010.98 1011.49 1012.40 1013.12 1013.49 1013.16 1013.05 1014.19 1015.74 1015.93 1016.36 1016.51 1016.65 1016.87 1016.91 1017.14 1017.50 1017.77 1017.97 1018.22 1018.50 1018.78 1019.14 1019.32 1019.54 1019.77 1019.91 1020.13 1020.22 1020.25 1020.42 1020.56 1020.61 1020.79 1020.87 1020.88 1020.84
1013.26 1012.51 1012.74 1013.01 1013.15 1012.24 1012.55 1012.08 1011.21 1010.95 1011.04 1010.92 1011.19 1011.49 1012.42 1013.06 1012.92 1012.86 1013.32 1014.54 1013.82 1015.64 1016.20 1016.45 1016.66 1016.89 1016.99 1017.01 1017.35 1017.74 1017.95 1018.22 1018.52 1018.74 1019.17 1019.38 1019.54 1019.75 1019.99 1020.17 1020.29 1020.42 1020.40 1020.60 1020.64 1020.81 1020.88 1020.83 1020.79
1013.42 1012.42 1012.83 1013.40 1013.55 1013.25 1012.74 1012.42 1011.83 1011.59 1011.33 1011.40 1011.74 1012.02 1012.44 1012.76 1013.27 1013.59 1013.91 1014.64 1014.96 1015.99 1018.03 1016.65 1016.64 1016.61 1016.80 1016.87 1017.16 1017.54 1017.82 1018.11 1018.21 1018.66 1018.94 1019.28 1019.44 1019.59 1019.86 1020.07 1020.28 1020.36 1020.51 1020.56 1020.62 1020.73 1020.78 1020.79 1020.71
1012.59 1013.17 1012.96 1013.22 1013.93 1013.85 1013.50 1013.01 1012.24 1012.23 1011.80 1012.01 1011.96 1012.34 1012.59 1012.63 1012.91 1013.63 1014.11 1014.54 1014.83 1015.22 1016.46 1016.81 1016.66 1015.97 1015.93 1016.58 1016.87 1017.14 1017.47 1017.80 1018.12 1018.27 1018.59 1018.91 1019.11 1019.41 1019.67 1019.81 1020.05 1020.25 1020.32 1020.33 1020.41 1020.44 1020.54 1020.61 1020.57
1013.24 1013.08 1013.59 1013.60 1014.71 1014.81 1014.32 1013.42 1013.09 1013.02 1012.65 1012.57 1012.60 1012.66 1012.80 1012.94 1013.23 1013.58 1013.69 1014.43 1014.65 1015.74 1014.72 1016.14 1016.25 1015.99 1015.83 1015.85 1016.10 1016.42 1016.78 1017.31 1017.85 1017.96 1018.12 1018.54 1018.84 1019.01 1019.21 1019.46 1019.75 1019.89 1019.99 1020.08 1020.25 1020.25 1020.25 1020.27 1020.27
1013.55 1013.87 1013.91 1013.94 1014.50 1014.75 1014.93 1014.16 1013.62 1013.49 1013.61 1013.24 1013.14 1013.09 1013.05 1013.13 1013.07 1013.46 1013.65 1014.02 1014.41 1014.79 1014.79 1014.58 1015.03 1015.66 1015.87 1015.94 1015.85 1016.00 1016.23 1016.69 1017.20 1017.61 1017.84 1018.16 1018.39 1018.62 1019.01 1019.26 1019.34 1019.38 1019.65 1019.78 1019.92 1020.02 1020.23 1020.27 1020.25
1013.45 1013.69 1013.78 1013.97 1013.97 1014.29 1014.82 1015.36 1014.21 1014.13 1014.05 1013.86 1013.65 1013.67 1013.40 1013.01 1012.89 1013.22 1013.12 1013.36 1013.43 1013.52 1013.90 1014.33 1014.70 1014.17 1015.90 1016.00 1015.73 1015.82 1015.71 1016.37 1016.70 1017.03 1017.42 1017.75 1018.14 1018.38 1018.68 1018.93 1019.03 1019.20 1019.45 1019.62 1019.84 1020.02 1020.16 1020.22 1020.06
1013.61 1014.08 1014.34 1014.50 1014.79 1015.15 1015.57 1015.38 1014.70 1014.41 1014.34 1013.94 1014.03 1013.88 1013.92 1013.61 1012.92 1012.67 1012.86 1012.91 1013.17 1013.22 1013.35 1013.95 1014.44 1013.78 1014.12 1015.97 1015.97 1015.94 1016.10 1016.18 1016.49 1016.89 1017.03 1017.33 1017.65 1017.88 1018.30 1018.53 1018.69 1018.99 1019.34 1019.64 1019.74 1019.89 1019.97 1020.00 1019.94
1013.24 1013.79 1014.46 1014.76 1014.84 1015.71 1016.09 1015.43 1015.08 1014.39 1014.31 1014.13 1014.03 1014.28 1014.03 1013.83 1013.51 1013.08 1012.87 1012.87 1013.11 1013.38 1013.81 1013.92 1014.10 1014.20 1014.41 1015.33 1016.13 1016.31 1016.22 1016.41 1016.66 1016.64 1016.87 1017.05 1017.28 1017.54 1018.02 1018.16 1018.35 1018.61 1019.08 1019.31 1019.49 1019.69 1019.75 1019.77 1019.79
1013.50 1013.66 1014.33 1014.34 1014.51 1015.81 1015.61 1015.20 1015.09 1015.07 1014.08 1013.76 1013.74 1013.98 1013.90 1013.80 1013.47 1013.42 1013.22 1012.98 1013.02 1013.07 1013.49 1013.66 1013.76 1013.99 1014.85 1013.81 1014.89 1015.58 1016.31 1016.70 1016.85 1016.98 1016.97 1017.02 1016.98 1017.32 1017.75 1018.09 1018.49 1018.70 1019.08 1019.32 1019.57 1019.66 1019.70 1019.67 1019.52
1014.12 1014.00 1013.69 1014.43 1015.48 1015.53 1015.43 1015.60 1014.80 1014.16 1013.58 1013.53 1013.35 1013.38 1013.53 1013.37 1013.47 1013.33 1013.38 1013.32 1012.98 1013.02 1013.04 1013.21 1013.82 1013.52 1014.37 1014.62 1014.71 1015.18 1016.03 1016.62 1017.14 1017.33 1017.42 1017.85 1017.79 1017.81 1017.82 1018.19 1018.49 1018.78 1018.98 1019.37 1019.74 1019.86 1019.87 1019.96 1019.91
1014.20 1014.41 1014.21 1014.28 1015.32 1015.32 1015.28 1015.23 1014.28 1013.76 1013.42 1013.49 1013.25 1013.38 1013.23 1013.33 1013.25 1013.15 1013.13 1013.27 1013.29 1012.96 1012.90 1013.04 1013.34 1013.41 1013.83 1014.38 1014.92 1015.14 1015.51 1016.39 1016.80 1017.18 1017.29 1017.52 1018.01 1018.36 1018.22 1018.59 1018.64 1018.70 1019.13 1019.56 1019.76 1019.88 1020.00 1020.08 1020.18
1014.52 1014.38 1014.22 1014.48 1015.15 1015.36 1015.92 1016.29 1013.32 1012.94 1013.05 1012.88 1012.73 1012.86 1012.56 1012.59 1012.82 1012.94 1012.84 1012.76 1012.79 1012.63 1012.78 1012.86 1012.88 1013.08 1013.77 1014.04 1014.74 1015.06 1015.82 1016.05 1016.46 1017.06 1017.74 1018.07 1018.22 1018.32 1018.03 1018.36 1018.80 1019.16 1019.38 1019.70 1019.88 1020.01 1020.18 1020.30 1020.35
1014.51 1014.25 1014.39 1015.04 1015.81 1015.64 1015.10 1015.37 1013.31 1012.62 1011.86 1011.60 1012.08 1012.56 1012.55 1012.46 1012.31 1012.39 1012.33 1012.48 1012.74 1012.70 1013.16 1013.24 1013.28 1013.32 1013.71 1013.98 1014.42 1014.93 1015.41 1016.04 1016.96 1017.53 1017.74 1018.11 1018.18 1018.25 1018.46 1018.78 1019.14 1019.41 1019.65 1019.87 1020.06 1020.08 1020.25 1020.28 1020.30
1014.71 1014.54 1015.76 1016.29 1016.46 1015.91 1015.19 1015.26 1013.40 1011.89 1011.22 1011.05 1011.46 1011.54 1011.79 1012.23 1012.46 1012.42 1012.50 1012.48 1012.66 1013.16 1013.30 1013.72 1013.89 1014.04 1014.18 1014.55 1014.70 1014.89 1015.47 1016.10 1016.38 1016.91 1017.68 1018.15 1018.41 1018.69 1018.98 1019.21 1019.55 1019.88 1019.88 1019.95 1020.02 1020.19 1020.28 1020.27 1020.25
1014.83 1014.97 1015.60 1016.02 1016.39 1016.16 1015.25 1014.54 1012.45 1011.43 1011.03 1011.12 1011.01 1011.34 1011.86 1012.04 1012.09 1011.99 1012.20 1012.68 1012.68 1012.87 1013.38 1013.89 1014.22 1014.34 1014.60 1014.85 1015.08 1015.17 1015.80 1016.25 1016.84 1016.83 1017.27 1017.86 1018.35 1018.87 1019.25 1019.50 1019.60 1020.02 1020.21 1020.34 1020.30 1020.35 1020.32 1020.24 1020.13
1014.88 1015.01 1015.01 1015.79 1016.58 1016.27 1015.65 1014.06 1012.57 1011.74 1011.92 1011.98 1012.02 1012.27 1012.48 1012.48 1012.36 1012.25 1012.23 1012.41 1012.86 1013.26 1013.24 1013.61 1014.09 1014.52 1014.89 1015.15 1015.41 1015.71 1015.85 1016.02 1016.59 1017.12 1017.53 1018.07 1018.59 1019.22 1019.58 1019.82 1019.97 1020.12 1019.97 1020.40 1020.56 1020.46 1020.46 1020.22 1020.20
1013.96 1014.47 1015.27 1015.91 1016.88 1016.78 1016.00 1014.72 1013.51 1013.26 1013.04 1012.93 1012.87 1012.79 1012.83 1012.76 1012.77 1012.74 1012.82 1012.89 1013.17 1013.44 1013.79 1014.14 1014.38 1014.54 1014.81 1015.26 1015.66 1015.98 1016.33 1016.50 1017.32 1017.22 1017.70 1018.64 1018.88 1019.30 1019.95 1020.22 1020.36 1020.52 1020.07 1020.56 1020.73 1020.71 1020.63 1020.40 1020.31
1014.41 1014.61 1015.26 1015.92 1016.75 1016.97 1016.51 1014.94 1013.42 1013.20 1013.12 1013.06 1013.08 1012.97 1012.88 1013.00 1013.16 1013.18 1013.35 1013.45 1013.57 1013.80 1014.18 1014.59 1014.95 1015.08 1015.30 1015.60 1016.08 1016.42 1016.70 1017.12 1017.76 1018.29 1017.93 1018.83 1019.34 1019.21 1019.51 1020.35 1020.84 1020.61 1020.36 1020.52 1020.83 1020.77 1020.67 1020.58 1020.33
1014.82 1014.99 1015.49 1016.33 1017.43 1017.59 1017.04 1014.96 1013.34 1013.01 1013.14 1012.94 1013.20 1013.09 1012.92 1012.96 1013.19 1013.56 1013.66 1013.60 1013.74 1013.97 1014.40 1014.75 1015.14 1015.33 1015.52 1015.91 1016.37 1016.73 1017.20 1017.72 1018.40 1018.63 1019.11 1019.29 1019.83 1020.02 1019.93 1020.28 1020.41 1020.75 1020.88 1020.79 1020.82 1020.69 1020.68 1020.67 1020.53
Thickness
5639 5646 5653 5654 5632 5634 5635 5668 5701 5701 5689 5720 5734 5731 5735 5739 5740 5727 5760 5763 5765 5761 5760 5757 5757 5756 5754 5754 5751 5749 5748 5747 5746 5744 5743 5743 5743 5743 5741 5738 5735 5732 5730 5728 5727 5726 5725 5724 5722
5628 5637 5638 5632 5617 5620 5651 5680 5686 5702 5703 5721 5725 5724 5729 5726 5744 5745 5749 5756 5759 5757 5754 5753 5753 5754 5752 5751 5748 5746 5746 5745 5743 5742 5740 5740 5738 5739 5737 5735 5732 5728 5726 5726 5725 5723 5722 5721 5720
5615 5623 5619 5613 5614 5631 5666 5687 5698 5703 5710 5714 5706 5725 5722 5716 5737 5743 5750 5751 5753 5752 5748 5748 5748 5749 5748 5748 5746 5744 5743 5742 5741 5740 5738 5738 5735 5735 5734 5732 5729 5726 5724 5723 5722 5721 5720 5719 5718
5603 5608 5607 5602 5617 5655 5674 5690 5695 5696 5701 5710 5710 5705 5716 5728 5733 5744 5745 5744 5744 5744 5743 5741 5742 5743 5742 5744 5742 5741 5741 5740 5738 5737 5736 5735 5733 5731 5731 5729 5726 5724 5722 5721 5720 5718 5718 5716 5715
5590 5594 5593 5596 5621 5653 5672 5687 5693 5694 5709 5711 5716 5699 5703 5720 5734 5734 5738 5736 5734 5736 5736 5736 5735 5736 5736 5739 5738 5737 5736 5736 5735 5734 5733 5732 5730 5728 5727 5725 5723 5721 5720 5719 5718 5717 5716 5715 5713
5574 5587 5583 5591 5620 5648 5667 5684 5687 5694 5699 5704 5702 5701 5706 5712 5718 5723 5730 5731 5729 5730 5729 5730 5732 5731 5731 5733 5733 5733 5733 5732 5732 5731 5730 5728 5727 5725 5723 5721 5720 5718 5716 5716 5715 5715 5714 5714 5712
5573 5581 5581 5604 5617 5636 5660 5680 5681 5693 5690 5695 5709 5692 5702 5707 5706 5717 5719 5723 5721 5722 5724 5725 5727 5727 5726 5729 5728 5728 5728 5728 5728 5728 5726 5724 5723 5722 5721 5718 5717 5715 5713 5712 5711 5711 5712 5711 5710
5573 5586 5586 5597 5610 5628 5661 5668 5681 5690 5686 5699 5705 5686 5698 5700 5707 5714 5709 5709 5710 5715 5717 5717 5721 5722 5723 5725 5723 5724 5723 5723 5723 5723 5722 5721 5719 5719 5718 5716 5714 5713 5711 5709 5708 5708 5708 5708 5707
5574 5575 5578 5598 5610 5634 5653 5657 5673 5689 5689 5689 5696 5706 5720 5712 5703 5713 5698 5690 5695 5706 5712 5714 5715 5718 5717 5720 5719 5720 5719 5718 5718 5718 5717 5716 5715 5714 5715 5714 5712 5709 5708 5707 5706 5706 5706 5706 5705
5568 5570 5582 5607 5620 5628 5642 5652 5664 5673 5676 5679 5686 5702 5709 5703 5700 5714 5694 5689 5693 5700 5706 5709 5712 5714 5714 5714 5715 5715 5715 5713 5715 5713 5713 5712 5712 5711 5710 5711 5710 5707 5706 5704 5703 5702 5702 5702 5702
5569 5573 5594 5604 5612 5622 5631 5642 5661 5663 5663 5677 5685 5691 5692 5692 5694 5703 5709 5696 5694 5694 5695 5700 5704 5706 5710 5711 5712 5711 5711 5711 5711 5710 5709 5710 5709 5708 5708 5707 5706 5706 5704 5703 5701 5699 5699 5699 5699
5550 5575 5587 5594 5599 5615 5615 5627 5642 5658 5665 5676 5684 5688 5684 5686 5693 5702 5704 5696 5689 5685 5684 5691 5694 5699 5703 5708 5709 5707 5708 5707 5707 5708 5704 5705 5707 5706 5705 5704 5703 5702 5702 5701 5700 5698 5697 5697 5696
5548 5572 5582 5583 5591 5601 5616 5620 5636 5646 5662 5669 5675 5682 5681 5681 5686 5690 5690 5691 5687 5673 5665 5681 5686 5695 5699 5703 5705 5705 5704 5703 5705 5704 5702 5701 5703 5703 5703 5701 5700 5700 5699 5699 5698 5696 5695 5695 5694
5562 5565 5581 5584 5585 5592 5601 5613 5630 5640 5653 5657 5667 5670 5676 5682 5687 5682 5682 5683 5680 5680 5672 5677 5680 5691 5698 5698 5701 5702 5701 5701 5701 5702 5701 5699 5700 5701 5700 5700 5698 5697 5697 5696 5696 5695 5694 5692 5691
5543 5549 5563 5569 5572 5581 5593 5606 5614 5624 5642 5647 5654 5661 5669 5673 5680 5683 5685 5677 5677 5673 5688 5682 5681 5685 5693 5698 5700 5701 5700 5699 5697 5698 5700 5697 5696 5698 5698 5698 5696 5695 5694 5693 5692 5692 5691 5691 5689
5535 5541 5551 5555 5565 5576 5581 5592 5608 5614 5623 5637 5644 5652 5659 5665 5673 5675 5679 5681 5678 5676 5681 5692 5693 5687 5685 5691 5695 5697 5698 5697 5695 5693 5694 5694 5694 5695 5694 5693 5693 5693 5691 5690 5689 5688 5687 5686 5685
5527 5530 5544 5553 5568 5568 5571 5572 5598 5606 5615 5627 5634 5639 5650 5660 5668 5671 5677 5680 5681 5681 5682 5686 5689 5697 5685 5684 5689 5694 5697 5695 5694 5692 5690 5690 5689 5690 5690 5689 5689 5688 5687 5685 5684 5683 5681 5680 5681
5525 5527 5538 5549 5559 5566 5561 5571 5586 5597 5608 5619 5626 5633 5638 5647 5661 5669 5673 5676 5678 5682 5685 5684 5684 5695 5696 5683 5683 5685 5689 5691 5689 5687 5687 5686 5686 5687 5685 5685 5686 5683 5681 5679 5678 5677 5677 5676 5676
5538 5537 5538 5546 5556 5552 5555 5565 5578 5592 5603 5611 5620 5624 5632 5640 5649 5661 5668 5673 5674 5674 5674 5678 5680 5686 5687 5683 5676 5675 5680 5681 5682 5684 5682 5682 5682 5682 5680 5680 5680 5678 5676 5676 5675 5673 5672 5671 5671
5536 5542 5538 5550 5558 5552 5556 5563 5575 5582 5599 5610 5617 5619 5629 5637 5647 5651 5658 5667 5672 5673 5672 5673 5676 5678 5677 5689 5681 5677 5672 5673 5673 5674 5675 5677 5678 5678 5676 5675 5672 5669 5668 5668 5667 5666 5665 5665 5665
5526 5535 5547 5545 5546 5552 5558 5555 5572 5587 5600 5609 5617 5623 5628 5635 5638 5646 5650 5656 5666 5670 5671 5671 5668 5675 5671 5674 5676 5676 5670 5668 5664 5665 5665 5664 5665 5667 5667 5666 5664 5662 5660 5659 5657 5656 5656 5654 5654
5530 5532 5544 5550 5542 5546 5556 5553 5570 5584 5594 5601 5610 5616 5626 5630 5636 5642 5647 5652 5657 5662 5667 5667 5666 5670 5669 5668 5667 5671 5669 5663 5662 5659 5661 5663 5657 5654 5655 5654 5655 5656 5653 5650 5648 5648 5647 5646 5643
5527 5534 5543 5550 5542 5551 5546 5540 5578 5589 5591 5604 5613 5618 5626 5630 5633 5637 5645 5650 5656 5660 5659 5661 5664 5666 5662 5664 5661 5663 5659 5660 5656 5652 5648 5648 5646 5646 5649 5648 5646 5644 5643 5641 5639 5637 5636 5634 5633
5528 5534 5536 5538 5533 5540 5554 5547 5569 5585 5605 5614 5617 5616 5618 5626 5633 5639 5644 5649 5648 5651 5651 5652 5655 5658 5656 5657 5657 5656 5656 5651 5646 5641 5640 5638 5638 5638 5638 5637 5635 5633 5632 5630 5628 5628 5625 5624 5623
5526 5529 5517 5530 5530 5539 5553 5551 5568 5598 5611 5619 5617 5621 5622 5623 5627 5633 5639 5641 5642 5640 5640 5639 5642 5644 5644 5643 5646 5647 5645 5641 5641 5638 5633 5630 5628 5626 5625 5624 5621 5619 5619 5618 5617 5616 5614 5614 5613
5528 5530 5522 5528 5530 5538 5552 5554 5576 5602 5610 5612 5618 5618 5620 5624 5625 5630 5635 5631 5636 5637 5633 5630 5630 5632 5633 5632 5632 5634 5630 5630 5627 5628 5626 5622 5618 5614 5612 5611 5610 5607 5605 5604 5604 5603 5603 5603 5602
5525 5525 5541 5532 5530 5522 5545 5565 5582 5593 5594 5598 5602 5604 5607 5611 5617 5625 5629 5627 5626 5625 5627 5625 5622 5621 5620 5620 5621 5621 5620 5621 5617 5614 5612 5610 5606 5601 5598 5596 5596 5594 5596 5592 5589 5590 5590 5591 5590
5538 5542 5528 5505 5526 5539 5537 5551 5561 5575 5581 5585 5589 5593 5600 5606 5609 5613 5615 5617 5616 5616 5613 5613 5613 5612 5612 5609 5607 5607 5606 5607 5601 5604 5603 5596 5594 5590 5585 5582 5580 5578 5582 5578 5577 5576 5577 5578 5577
5533 5534 5535 5532 5516 5525 5533 5547 5565 5571 5572 5575 5580 5588 5593 5596 5598 5601 5603 5603 5605 5604 5602 5600 5598 5599 5599 5598 5594 5593 5593 5590 5588 5586 5590 5584 5579 5580 5576 5568 5565 5566 5568 5567 5564 5564 5563 5563 5565
5533 5535 5533 5504 5525 5496 5501 5542 5562 5565 5566 5572 5574 5582 5586 5590 5591 5590 5592 5595 5595 5594 5591 5589 5586 5587 5587 5585 5582 5580 5578 5575 5571 5571 5567 5567 5563 5561 5560 5558 5557 5553 5552 5553 5552 5552 5551 5550 5551